Weather History for Cedar Rapids, IA

Change the Weather History Date:

Thursday, January 31, 2013

  Actual Average Record
Temperature  
Mean Temperature 8 °F 20 °F  
Max Temperature 16 °F 29 °F 65 °F (1989)
Min Temperature -1 °F 12 °F -21 °F (1996)
Degree Days  
Heating Degree Days 57 45  
Month to date heating degree days 1296 1412  
Since 1 July heating degree days 3995 4148  
Cooling Degree Days 0 0  
Month to date cooling degree days 0 0  
Year to date cooling degree days 0 0  
Moisture  
Dew Point -1 °F    
Average Humidity 80    
Maximum Humidity 88    
Minimum Humidity 72    
Precipitation  
Precipitation T in 0.04 in 0.18 in (1965)
Month to date precipitation 0.94 0.92  
Year to date precipitation 0.94 0.92  
Sea Level Pressure  
Sea Level Pressure 30.06 in    
Wind  
Wind Speed 21 mph (WNW)    
Max Wind Speed 32 mph    
Max Gust Speed 38 mph    
Visibility 7 miles    
Events Snow    
T = Trace of Precipitation, MM = Missing Value Source: NWS Daily Summary

Daily Weather History Graph

Daily Weather History Graph

Search for Another Location

Airport:

Trip Planner

Search our weather history database for the weather conditions in past years. The results will help you decide how hot, cold, wet, or windy it might be!

Date:

Astronomy

Jan. 31, 2013 Rise Set
Actual Time 7:20 AM CST 5:21 PM CST
Civil Twilight 6:50 AM CST 5:50 PM CST
Nautical Twilight 6:17 AM CST 6:24 PM CST
Astronomical Twilight 5:44 AM CST 6:56 PM CST
Moon 10:29 PM CST (1/31) 9:14 AM CST (1/31)
Length of Visible Light 11h 00m
Length of Day
10h 01m
Waning Gibbous, 79% of the Moon is Illuminated
Jan 31
Waning Gibbous
Feb 3
Last Quarter
Feb 10
New
Feb 17
First Quarter
Feb 25
Full

Hourly Weather History & Observations

Time (CST) Temp. Windchill Dew Point Humidity Pressure Visibility Wind Dir Wind Speed Gust Speed Precip Events Conditions
12:16 AM 15.8 °F -2.3 °F 8.6 °F 73% 29.77 in 2.0 mi WNW 23.0 mph 31.1 mph 0.00 in Snow Light Snow
12:25 AM 14.0 °F -5.1 °F 8.6 °F 79% 29.77 in 6.0 mi WNW 24.2 mph - 0.00 in   Overcast
12:52 AM 15.1 °F -3.3 °F 9.0 °F 77% 29.82 in 9.0 mi WNW 23.0 mph 26.5 mph 0.00 in   Overcast
1:40 AM 12.2 °F -7.5 °F 6.8 °F 79% 29.80 in 4.0 mi WNW 24.2 mph 32.2 mph 0.00 in Snow Blowing Snow
1:50 AM 10.4 °F -8.2 °F 6.8 °F 85% 29.81 in 8.0 mi WNW 19.6 mph 28.8 mph 0.00 in   Mostly Cloudy
1:52 AM 10.9 °F -7.9 °F 6.1 °F 81% 29.85 in 9.0 mi WNW 20.7 mph 28.8 mph 0.00 in   Mostly Cloudy
2:52 AM 10.0 °F -8.6 °F 3.9 °F 76% 29.87 in 10.0 mi WNW 19.6 mph - N/A   Partly Cloudy
3:52 AM 8.1 °F -7.7 °F 3.9 °F 83% 29.87 in 10.0 mi WNW 12.7 mph - N/A   Mostly Cloudy
4:47 AM 6.8 °F -8.6 °F 3.2 °F 85% 29.83 in 9.0 mi West 11.5 mph - N/A   Mostly Cloudy
4:52 AM 7.0 °F -9.8 °F 3.9 °F 87% 29.89 in 9.0 mi West 13.8 mph - N/A   Mostly Cloudy
4:56 AM 6.8 °F -10.0 °F 3.2 °F 85% 29.84 in 9.0 mi West 13.8 mph - N/A   Scattered Clouds
5:52 AM 6.1 °F -13.3 °F 1.9 °F 83% 29.90 in 10.0 mi WNW 18.4 mph - N/A   Clear
6:52 AM 7.0 °F -10.4 °F 1.9 °F 80% 29.93 in 9.0 mi WNW 15.0 mph - N/A   Mostly Cloudy
7:52 AM 5.0 °F -12.3 °F 1.9 °F 87% 29.95 in 9.0 mi WNW 13.8 mph - N/A   Mostly Cloudy
8:52 AM 5.0 °F -16.2 °F 1.0 °F 84% 29.97 in 7.0 mi WNW 21.9 mph - 0.00 in   Scattered Clouds
9:52 AM 5.0 °F -16.2 °F -0.9 °F 76% 30.01 in 9.0 mi WNW 21.9 mph - N/A   Scattered Clouds
10:52 AM 5.0 °F -17.5 °F -0.9 °F 76% 30.04 in 7.0 mi NW 25.3 mph 33.4 mph N/A   Scattered Clouds
11:52 AM 5.0 °F -17.9 °F -0.9 °F 76% 30.06 in 5.0 mi WNW 26.5 mph 31.1 mph 0.00 in   Scattered Clouds
12:52 PM 5.0 °F -17.9 °F -0.9 °F 76% 30.08 in 3.0 mi NW 26.5 mph 38.0 mph 0.00 in Snow Blowing Snow
1:52 PM 6.1 °F -17.2 °F -0.0 °F 76% 30.09 in 4.0 mi WNW 28.8 mph 35.7 mph 0.00 in Snow Light Snow
1:59 PM 5.0 °F -16.2 °F -0.4 °F 78% 30.04 in 4.0 mi WNW 21.9 mph 35.7 mph 0.00 in Snow Light Snow
2:02 PM 6.8 °F -15.9 °F -0.4 °F 72% 30.04 in 4.0 mi WNW 27.6 mph 31.1 mph 0.00 in Snow Light Snow
2:19 PM 3.2 °F -21.1 °F -0.4 °F 85% 30.04 in 2.5 mi WNW 28.8 mph 38.0 mph 0.00 in Snow Light Snow
2:52 PM 3.9 °F -20.1 °F -0.9 °F 80% 30.12 in 2.5 mi WNW 28.8 mph 38.0 mph 0.00 in Snow Light Snow
2:54 PM 5.0 °F -17.5 °F -0.4 °F 78% 30.06 in 0.8 mi WNW 25.3 mph 38.0 mph 0.00 in Snow Light Snow
2:57 PM 5.0 °F -17.9 °F -2.2 °F 72% 30.06 in 2.5 mi WNW 26.5 mph 38.0 mph 0.00 in Snow Light Snow
3:19 PM 5.0 °F -17.5 °F 1.4 °F 85% 30.08 in 0.2 mi NW 25.3 mph 36.8 mph 0.00 in Snow Heavy Snow
3:27 PM 3.2 °F -20.7 °F -0.4 °F 85% 30.08 in 1.2 mi NW 27.6 mph 36.8 mph 0.00 in Snow Light Snow
3:52 PM 3.9 °F -18.5 °F -2.0 °F 76% 30.15 in 2.0 mi WNW 24.2 mph 34.5 mph 0.00 in Snow Snow
4:52 PM 3.0 °F -20.6 °F -2.0 °F 80% 30.19 in 2.0 mi WNW 26.5 mph 33.4 mph 0.00 in Snow Snow
5:52 PM 1.9 °F -20.7 °F -4.0 °F 76% 30.21 in 2.0 mi WNW 23.0 mph 29.9 mph 0.00 in Snow Snow
5:59 PM 1.4 °F -21.4 °F -4.0 °F 78% 30.15 in 5.0 mi WNW 23.0 mph 31.1 mph 0.00 in Snow Snow
6:52 PM 1.9 °F -19.2 °F -4.0 °F 76% 30.24 in 9.0 mi NW 19.6 mph 27.6 mph 0.00 in   Overcast
7:52 PM 1.0 °F -19.3 °F -5.1 °F 75% 30.27 in 10.0 mi NW 17.3 mph - N/A   Overcast
8:44 PM -0.4 °F -21.7 °F -7.6 °F 72% 30.22 in 10.0 mi NW 18.4 mph - N/A   Scattered Clouds
8:52 PM -0.0 °F -20.7 °F -7.1 °F 72% 30.29 in 10.0 mi NW 17.3 mph - N/A   Mostly Cloudy
9:52 PM -0.0 °F -20.7 °F -7.1 °F 72% 30.31 in 10.0 mi NW 17.3 mph 25.3 mph N/A   Mostly Cloudy
10:28 PM -0.4 °F -21.7 °F -7.6 °F 72% 30.25 in 10.0 mi NW 18.4 mph - N/A   Scattered Clouds
10:42 PM -0.4 °F -21.2 °F -7.6 °F 72% 30.25 in 10.0 mi NW 17.3 mph - N/A   Mostly Cloudy
10:52 PM -0.9 °F -22.4 °F -7.1 °F 75% 30.33 in 10.0 mi NW 18.4 mph - N/A   Mostly Cloudy
11:04 PM -0.4 °F -21.2 °F -7.6 °F 72% 30.26 in 10.0 mi NW 17.3 mph - N/A   Partly Cloudy
11:35 PM -0.4 °F -20.5 °F -7.6 °F 72% 30.28 in 10.0 mi WNW 16.1 mph - N/A   Mostly Cloudy
11:52 PM -0.9 °F -21.2 °F -7.1 °F 75% 30.35 in 10.0 mi WNW 16.1 mph - N/A   Overcast